Weather History for KRFI - October, 2011

Change the Weather History Date:

Thursday, October 6, 2011

  Actual Average (KGGG) Record (KGGG)
Temperature  
Mean Temperature 71 °F 69 °F  
Max Temperature 89 °F 81 °F 96 °F (1939)
Min Temperature 53 °F 57 °F 41 °F (2010)
Degree Days  
Heating Degree Days 0 1  
Month to date heating degree days 6  
Since 1 July heating degree days 12  
Cooling Degree Days 6 5  
Month to date cooling degree days 35  
Year to date cooling degree days 2314  
Growing Degree Days 21 (Base 50)    
Moisture  
Dew Point 48 °F    
Average Humidity 46    
Maximum Humidity 82    
Minimum Humidity 21    
Precipitation  
Precipitation 0.00 in 0.14 in 3.31 in (1998)
Month to date precipitation 0.92  
Year to date precipitation 34.91  
Snow  
Snow 0.00 in - - ()
Month to date snowfall  
Since 1 July snowfall  
Since 1 September snowfall  
Snow Depth -    
Sea Level Pressure  
Sea Level Pressure 30.05 in    
Wind  
Wind Speed 4 mph (SE)    
Max Wind Speed 13 mph    
Max Gust Speed 23 mph    
Visibility 10 miles    
Events      
T = Trace of Precipitation, MM = Missing Value Source: NWS Daily Summary

Daily Weather History Graph

Daily Weather History Graph

Search for Another Location

Airport or City:

Trip Planner

Search our weather history database for the weather conditions in past years. The results will help you decide how hot, cold, wet, or windy it might be!

Date:

Astronomy

Oct. 06, 2011 Rise Set
Actual Time 7:16 AM CDT 6:58 PM CDT
Civil Twilight 6:52 AM CDT 7:22 PM CDT
Nautical Twilight 6:23 AM CDT 7:50 PM CDT
Astronomical Twilight 5:55 AM CDT 8:19 PM CDT
Moon 3:57 PM CDT (10/6) 2:23 AM CDT (10/6)
Length of Visible Light 12h 30m
Length of Day
11h 41m
Waxing Gibbous, 75% of the Moon is Illuminated
Oct 6
Waxing Gibbous
Oct 11
Full
Oct 19
Last Quarter
Oct 26
New
Nov 2
First Quarter

Hourly Weather History & Observations

Time (CDT) Temp. Dew Point Humidity Pressure Visibility Wind Dir Wind Speed Gust Speed Precip Events Conditions
12:15 AM 66.2 °F 42.8 °F 43% 30.07 in 10.0 mi SSE 3.5 mph - N/A   Clear
12:35 AM 64.4 °F 42.8 °F 45% 30.06 in 10.0 mi Calm Calm - N/A   Clear
12:55 AM 64.4 °F 42.8 °F 45% 30.06 in 10.0 mi Calm Calm - N/A   Clear
1:15 AM 60.8 °F 42.8 °F 52% 30.06 in 10.0 mi Calm Calm - N/A   Clear
1:35 AM 60.8 °F 42.8 °F 52% 30.07 in 10.0 mi Calm Calm - N/A   Clear
1:55 AM 60.8 °F 44.6 °F 55% 30.07 in 10.0 mi Calm Calm - N/A   Clear
2:15 AM 59.0 °F 44.6 °F 59% 30.07 in 10.0 mi Calm Calm - N/A   Clear
2:35 AM 60.8 °F 44.6 °F 55% 30.07 in 10.0 mi Calm Calm - N/A   Clear
2:55 AM 59.0 °F 44.6 °F 59% 30.07 in 10.0 mi Calm Calm - N/A   Clear
3:15 AM 59.0 °F 44.6 °F 59% 30.07 in 10.0 mi Calm Calm - N/A   Clear
3:35 AM 55.4 °F 44.6 °F 67% 30.07 in 10.0 mi Calm Calm - N/A   Clear
3:55 AM 59.0 °F 44.6 °F 59% 30.06 in 10.0 mi Calm Calm - N/A   Clear
4:35 AM 57.2 °F 44.6 °F 63% 30.07 in 10.0 mi Calm Calm - N/A   Clear
4:55 AM 59.0 °F 44.6 °F 59% 30.07 in 10.0 mi Calm Calm - N/A   Clear
5:15 AM 55.4 °F 46.4 °F 72% 30.07 in 10.0 mi Calm Calm - N/A   Clear
5:35 AM 55.4 °F 46.4 °F 72% 30.07 in 10.0 mi Calm Calm - N/A   Clear
5:55 AM 55.4 °F 46.4 °F 72% 30.08 in 10.0 mi Calm Calm - N/A   Clear
6:15 AM 55.4 °F 48.2 °F 77% 30.08 in 10.0 mi Calm Calm - N/A   Clear
6:35 AM 53.6 °F 46.4 °F 77% 30.08 in 10.0 mi Calm Calm - N/A   Clear
6:55 AM 53.6 °F 46.4 °F 77% 30.08 in 10.0 mi Calm Calm - N/A   Clear
7:15 AM 53.6 °F 46.4 °F 77% 30.09 in 10.0 mi Calm Calm - N/A   Clear
7:35 AM 53.6 °F 46.4 °F 77% 30.10 in 10.0 mi Calm Calm - N/A   Clear
7:55 AM 53.6 °F 48.2 °F 82% 30.10 in 10.0 mi Calm Calm - N/A   Clear
8:15 AM 59.0 °F 50.0 °F 72% 30.10 in 10.0 mi Calm Calm - N/A   Clear
8:55 AM 66.2 °F 53.6 °F 64% 30.11 in 10.0 mi SE 5.8 mph - N/A   Clear
9:15 AM 69.8 °F 55.4 °F 60% 30.11 in 10.0 mi SE 10.4 mph - N/A   Clear
9:35 AM 71.6 °F 55.4 °F 57% 30.11 in 10.0 mi SE 6.9 mph - N/A   Clear
9:55 AM 73.4 °F 55.4 °F 53% 30.11 in 10.0 mi SE 12.7 mph 16.1 mph N/A   Clear
10:35 AM 77.0 °F 55.4 °F 47% 30.11 in 10.0 mi SSE 11.5 mph 20.7 mph N/A   Clear
10:55 AM 78.8 °F 53.6 °F 42% 30.10 in 10.0 mi SSE 11.5 mph - N/A   Clear
11:15 AM 78.8 °F 53.6 °F 42% 30.09 in 10.0 mi SSE 12.7 mph - N/A   Clear
11:35 AM 82.4 °F 51.8 °F 35% 30.09 in 10.0 mi SSE 9.2 mph - N/A   Clear
11:55 AM 80.6 °F 50.0 °F 34% 30.09 in 10.0 mi SSE 9.2 mph 17.3 mph N/A   Clear
12:15 PM 82.4 °F 48.2 °F 30% 30.08 in 10.0 mi SSE 8.1 mph - N/A   Clear
12:35 PM 82.4 °F 48.2 °F 30% 30.07 in 10.0 mi South 11.5 mph 17.3 mph N/A   Clear
12:55 PM 84.2 °F 50.0 °F 30% 30.06 in 10.0 mi SSE 8.1 mph - N/A   Clear
1:15 PM 86.0 °F 50.0 °F 29% 30.06 in 10.0 mi SSE 8.1 mph - N/A   Clear
1:35 PM 86.0 °F 50.0 °F 29% 30.04 in 10.0 mi ESE 9.2 mph 19.6 mph N/A   Clear
1:55 PM 86.0 °F 50.0 °F 29% 30.03 in 10.0 mi South 8.1 mph 17.3 mph N/A   Clear
2:15 PM 87.8 °F 50.0 °F 27% 30.03 in 10.0 mi SE 4.6 mph 20.7 mph N/A   Clear
2:55 PM 87.8 °F 48.2 °F 25% 30.01 in 10.0 mi South 8.1 mph - N/A   Scattered Clouds
3:15 PM 87.8 °F 48.2 °F 25% 30.01 in 10.0 mi South 9.2 mph 18.4 mph N/A   Scattered Clouds
3:35 PM 87.8 °F 46.4 °F 24% 30.00 in 10.0 mi SSE 12.7 mph 17.3 mph N/A   Clear
3:55 PM 89.6 °F 46.4 °F 22% 30.00 in 10.0 mi South 12.7 mph 17.3 mph N/A   Scattered Clouds
4:15 PM 89.6 °F 46.4 °F 22% 30.00 in 10.0 mi SE 9.2 mph - N/A   Scattered Clouds
4:35 PM 87.8 °F 44.6 °F 22% 29.99 in 10.0 mi South 8.1 mph 17.3 mph N/A   Clear
4:55 PM 87.8 °F 44.6 °F 22% 29.99 in 10.0 mi South 10.4 mph - N/A   Scattered Clouds
5:15 PM 87.8 °F 42.8 °F 21% 29.99 in 10.0 mi SSE 11.5 mph 18.4 mph N/A   Scattered Clouds
5:35 PM 87.8 °F 42.8 °F 21% 29.99 in 10.0 mi SE 10.4 mph 23.0 mph N/A   Clear
6:15 PM 86.0 °F 44.6 °F 23% 29.99 in 10.0 mi SE 11.5 mph 17.3 mph N/A   Clear
6:35 PM 84.2 °F 46.4 °F 27% 29.99 in 10.0 mi ESE 9.2 mph - N/A   Clear
6:55 PM 82.4 °F 46.4 °F 28% 29.99 in 10.0 mi SE 8.1 mph - N/A   Clear
7:15 PM 80.6 °F 46.4 °F 30% 30.00 in 10.0 mi SE 5.8 mph - N/A   Clear
7:35 PM 78.8 °F 48.2 °F 34% 30.00 in 10.0 mi ESE 5.8 mph - N/A   Clear
7:55 PM 78.8 °F 48.2 °F 34% 30.00 in 10.0 mi SE 6.9 mph - N/A   Clear
8:15 PM 78.8 °F 50.0 °F 36% 30.01 in 10.0 mi ESE 5.8 mph - N/A   Clear
8:35 PM 78.8 °F 51.8 °F 39% 30.02 in 10.0 mi SE 5.8 mph - N/A   Clear
8:55 PM 77.0 °F 53.6 °F 44% 30.03 in 10.0 mi SE 8.1 mph - N/A   Clear
9:15 PM 77.0 °F 53.6 °F 44% 30.03 in 10.0 mi SE 9.2 mph - N/A   Clear
9:35 PM 77.0 °F 55.4 °F 47% 30.03 in 10.0 mi SE 10.4 mph 17.3 mph N/A   Clear
9:55 PM 77.0 °F 55.4 °F 47% 30.04 in 10.0 mi SE 10.4 mph 16.1 mph N/A   Clear
10:15 PM 77.0 °F 55.4 °F 47% 30.04 in 10.0 mi SE 10.4 mph 16.1 mph N/A   Clear
10:35 PM 77.0 °F 55.4 °F 47% 30.05 in 10.0 mi SE 11.5 mph 16.1 mph N/A   Clear
10:55 PM 75.2 °F 57.2 °F 53% 30.05 in 10.0 mi SE 8.1 mph - N/A   Clear
11:15 PM 75.2 °F 57.2 °F 53% 30.06 in 10.0 mi SSE 8.1 mph - N/A   Clear
11:35 PM 73.4 °F 57.2 °F 57% 30.06 in 10.0 mi SSE 8.1 mph - N/A   Clear
11:55 PM 73.4 °F 57.2 °F 57% 30.06 in 10.0 mi SSE 8.1 mph - N/A   Clear